Temp
97 95 94 94 92 93 92 91 90 91 90 90 90 91 92 91 90 89 89 87 85 85 85 85 86 86 86 86 87 87 87 87 87 87 87 88 89 89 89 90 89 89 92 91 91 91 91 91 92 92 91 91 91 90 90 90 89 90 90 89 89 89 89
96 96 96 95 94 93 93 92 91 91 91 91 91 90 92 91 90 90 88 87 86 86 86 86 85 86 86 87 87 87 86 87 87 87 88 88 88 89 90 89 89 89 90 91 92 91 91 92 92 91 91 91 90 90 91 90 89 89 90 89 89 88 89
97 97 97 96 95 94 92 93 92 92 91 92 92 92 91 89 90 89 89 88 86 86 87 86 86 87 87 87 87 87 87 88 87 88 88 89 89 91 90 90 90 91 91 92 92 92 93 92 91 91 91 91 92 91 90 90 89 90 90 89 89 89 88
96 97 97 97 95 94 94 93 92 93 94 94 93 93 91 89 91 90 90 89 87 87 86 87 87 87 87 86 86 86 87 87 88 90 90 90 89 90 90 89 89 91 91 91 93 93 94 92 92 91 90 91 90 91 91 90 91 90 90 89 89 89 88
97 98 98 97 97 95 94 94 93 92 94 95 94 92 92 92 92 92 91 91 91 89 90 89 91 89 88 88 89 89 88 88 89 90 90 90 89 89 89 90 91 91 91 93 92 91 90 91 92 91 90 90 91 91 90 90 90 90 89 89 88 89 89
98 97 97 97 97 97 96 96 96 96 95 95 95 94 94 95 94 94 93 91 91 92 90 90 89 88 88 89 90 89 89 88 88 88 89 89 89 89 90 90 91 91 93 91 93 92 91 91 92 92 92 92 92 93 93 91 91 91 90 89 88 90 91
98 97 97 98 98 98 97 96 98 97 97 97 98 96 96 96 95 95 95 93 93 91 91 91 91 90 88 89 89 89 88 89 89 89 90 90 90 89 89 90 90 92 93 92 91 92 92 90 90 91 91 93 91 93 91 90 90 91 90 88 88 88 89
99 98 98 98 99 100 99 97 97 98 97 97 97 97 96 97 96 96 95 95 94 94 93 93 92 90 89 89 90 89 89 89 90 90 90 90 90 89 90 91 90 91 91 92 91 92 92 91 92 91 91 92 91 90 92 90 89 92 91 88 88 88 90
101 99 99 100 100 102 101 99 98 98 96 95 96 95 96 96 96 95 95 95 95 94 94 95 94 93 89 89 89 88 90 90 90 90 89 91 91 92 93 92 91 91 91 92 93 92 92 92 93 90 90 90 90 90 90 89 90 90 90 89 88 88 90
99 98 98 100 101 102 100 99 97 95 94 93 94 93 94 95 95 95 96 96 97 95 95 95 95 94 91 90 90 90 90 89 90 91 92 92 93 93 94 94 93 92 92 93 94 93 91 92 92 91 89 89 89 89 89 89 90 90 91 89 89 89 88
99 98 96 98 99 99 99 99 95 93 93 91 92 95 94 94 94 96 95 96 97 96 97 96 95 94 92 92 92 92 89 91 92 91 91 92 94 94 95 96 95 93 93 93 94 94 93 91 92 90 89 89 89 89 89 89 89 89 91 91 91 90 90
93 93 92 93 95 96 96 95 94 92 91 91 93 95 92 92 95 96 96 96 98 97 96 96 97 95 93 93 92 90 90 90 92 92 92 93 94 95 96 96 96 95 94 94 93 94 95 92 92 91 89 89 90 89 89 89 89 89 89 92 92 91 91
95 94 93 94 93 94 93 93 92 91 91 93 95 96 95 95 94 96 93 94 97 97 96 94 94 93 92 93 93 91 91 91 91 92 93 92 93 95 95 96 97 96 95 94 94 94 95 95 92 91 91 89 90 90 89 89 89 89 89 90 90 91 90
90 96 95 94 93 92 91 91 91 90 91 93 94 95 95 96 96 95 93 94 95 97 97 96 94 91 90 91 91 89 91 91 92 92 91 92 91 93 95 96 96 95 94 94 93 95 95 95 93 93 93 91 91 90 90 89 89 89 89 89 90 90 90
94 97 96 95 91 91 91 92 90 90 91 92 94 94 95 95 95 94 94 94 94 98 96 94 92 91 91 90 89 89 90 90 91 91 91 91 90 91 92 94 94 94 93 92 94 96 96 96 96 93 92 91 90 90 91 90 89 90 89 88 89 90 91
95 96 98 97 94 93 91 91 91 90 90 90 92 93 95 94 93 94 94 94 95 94 95 94 91 90 90 90 89 90 89 89 89 90 90 90 89 89 91 93 93 94 93 92 93 93 93 93 94 95 93 91 91 91 91 90 91 85 77 80 89 89 91
91 91 93 94 95 95 93 92 92 91 90 89 91 92 93 93 93 94 96 94 95 93 94 95 91 90 90 89 90 89 89 88 88 89 88 88 89 89 89 90 91 91 90 90 91 91 90 92 93 94 94 93 92 91 91 91 90 76 69 70 74 88 90
88 87 89 91 91 92 94 94 93 92 91 93 94 93 93 92 94 94 94 94 94 96 97 94 92 91 89 91 89 89 88 88 88 87 87 88 87 88 88 90 90 89 89 90 90 89 92 91 91 91 93 94 94 93 92 92 81 69 67 69 69 75 89
86 88 88 88 88 88 91 95 97 94 94 95 94 94 96 95 95 92 93 92 93 94 95 94 94 90 89 90 89 88 88 88 87 87 87 87 87 87 87 88 88 89 89 90 90 90 88 89 90 90 91 92 91 93 94 93 76 66 66 67 67 67 78
85 86 88 89 89 90 90 91 93 97 97 95 95 98 98 96 95 94 95 94 94 93 92 91 92 90 89 89 88 88 88 87 87 87 87 87 87 87 87 87 87 90 91 91 89 88 88 90 89 89 88 90 90 90 93 94 76 66 64 65 64 66 71
82 84 85 86 87 89 89 88 91 93 95 98 98 97 97 96 97 95 94 94 92 92 91 91 90 89 89 88 88 88 88 87 87 86 87 87 87 86 86 86 87 88 90 92 90 88 87 88 88 88 88 90 91 90 92 96 71 64 62 62 62 63 69
82 84 84 86 86 86 86 88 89 94 95 97 98 99 98 97 97 95 93 94 93 93 92 90 89 89 89 88 89 88 88 87 87 86 87 87 86 86 86 86 86 86 88 90 92 91 90 89 90 89 89 89 91 91 91 95 70 62 61 60 61 62 78
81 84 86 87 89 89 89 90 90 93 95 97 98 99 98 98 98 95 94 94 94 92 91 90 88 88 88 88 89 88 88 88 87 86 86 87 86 86 87 86 86 87 88 89 90 91 90 89 91 90 90 90 89 89 90 93 76 60 59 59 59 65 83
82 85 87 88 88 90 90 91 92 94 96 96 96 98 98 98 96 93 90 90 91 92 91 90 89 89 88 88 89 88 88 88 88 87 87 87 86 87 88 89 89 88 89 89 90 92 93 92 91 90 91 91 91 92 90 92 79 59 58 57 57 69 83
80 85 86 87 88 89 91 92 93 94 95 95 95 97 97 97 95 91 90 91 94 93 91 90 90 90 89 89 89 89 89 90 89 88 88 87 88 89 88 88 88 89 89 91 91 91 92 92 91 91 91 94 94 83 89 93 83 59 59 56 57 69 84
75 80 84 88 90 90 88 90 91 92 94 94 93 97 96 97 94 90 90 92 94 93 91 90 90 91 91 90 90 90 90 90 88 88 89 88 88 89 89 89 90 90 90 90 91 91 93 93 92 91 91 94 94 94 92 91 93 75 57 57 56 60 83
76 80 82 86 88 85 89 91 91 92 94 94 93 96 97 96 93 89 89 90 90 90 92 92 91 90 90 90 91 91 91 91 90 89 90 91 89 90 90 91 90 91 90 90 92 91 90 92 92 92 91 93 93 94 94 94 93 83 56 57 55 57 67
74 78 82 84 85 86 89 92 91 92 95 94 94 96 96 93 89 87 88 89 89 91 94 92 91 90 90 89 90 91 91 91 90 90 91 90 89 88 88 90 91 90 91 91 90 88 88 88 89 91 91 92 93 93 92 90 82 93 62 58 55 56 58
69 71 74 77 83 88 89 89 91 92 94 96 96 95 94 91 88 87 87 87 89 92 92 92 91 90 89 88 89 89 90 90 90 89 92 90 89 88 87 89 89 89 89 88 88 87 87 87 88 88 90 90 90 90 90 90 86 74 78 58 55 54 55
68 70 72 76 82 84 88 86 88 91 93 94 93 93 92 90 87 87 87 87 90 92 92 91 90 89 89 88 89 89 90 91 91 90 90 90 89 88 87 87 88 88 88 88 88 87 86 87 87 87 87 88 89 90 91 90 92 77 71 69 54 55 54
66 67 69 71 76 78 83 86 84 87 90 92 92 92 91 91 88 87 86 89 90 90 91 90 89 89 88 88 89 89 91 91 90 90 91 90 90 88 88 87 87 87 87 87 87 87 87 86 87 85 86 87 87 89 90 92 92 95 78 66 59 55 53
66 67 69 71 72 75 79 84 84 85 85 86 89 89 89 90 90 86 87 90 90 91 91 90 88 88 88 89 89 90 91 90 91 91 90 90 91 89 89 88 88 88 88 88 88 88 87 87 88 88 86 86 88 89 91 91 92 92 90 73 67 61 56
64 66 66 67 69 71 74 79 82 82 83 84 87 89 90 90 90 89 90 89 91 91 90 89 88 87 87 88 90 90 90 90 92 92 91 90 92 91 91 91 91 89 87 88 89 88 88 88 88 88 87 87 87 90 89 91 92 92 93 89 84 82 73
63 64 66 68 69 70 71 72 76 80 81 82 85 87 88 89 89 90 90 91 92 92 90 88 88 88 88 89 90 90 90 89 86 88 92 91 92 93 93 92 92 92 88 89 89 89 90 89 88 88 89 89 90 89 90 90 91 92 92 92 89 88 86
64 64 65 67 68 69 70 72 74 76 78 79 83 85 86 86 88 89 89 90 91 90 88 87 86 88 88 89 90 89 89 90 90 91 92 92 90 93 90 89 94 92 91 91 94 93 92 92 91 90 91 92 90 89 90 91 90 94 80 90 77 86 91
65 65 65 67 69 69 70 71 73 75 77 78 81 82 83 84 85 87 89 89 90 89 88 87 87 87 88 89 89 89 89 89 90 91 91 93 91 88 74 52 46 60 81 89 69 60 57 63 85 86 90 92 92 93 91 91 88 63 64 63 61 63 66
66 65 65 66 67 67 69 70 71 73 74 77 79 80 81 82 84 85 86 87 88 88 88 88 87 88 89 89 89 88 88 89 90 90 90 91 92 90 84 80 70 46 42 51 57 53 44 41 41 46 54 74 87 85 68 61 52 51 54 56 57 57 56
70 68 66 67 67 67 68 69 70 71 73 76 78 79 81 82 84 84 86 86 86 87 87 88 87 87 88 89 89 87 87 89 88 89 89 90 90 88 86 86 82 75 51 42 46 46 42 41 40 40 43 47 60 77 85 61 50 50 50 51 52 53 51
MSLP
1004.09 1004.57 1004.89 1005.25 1005.73 1005.89 1006.17 1006.61 1006.97 1007.37 1007.69 1008.09 1008.41 1008.73 1009.05 1009.37 1009.69 1010.13 1010.65 1011.09 1011.69 1012.29 1012.53 1012.85 1013.25 1013.61 1014.13 1014.49 1014.65 1014.97 1015.25 1015.53 1015.73 1016.09 1016.29 1016.41 1016.45 1016.65 1016.93 1016.97 1017.25 1017.41 1017.41 1017.69 1017.85 1017.97 1018.01 1018.05 1018.25 1018.41 1018.57 1018.85 1019.05 1019.21 1019.37 1019.45 1019.61 1019.65 1019.77 1019.89 1020.09 1020.25 1020.33
1003.85 1004.01 1004.33 1004.61 1005.09 1005.45 1005.61 1005.89 1006.29 1006.65 1007.05 1007.41 1007.81 1008.21 1008.45 1008.89 1009.29 1009.73 1010.09 1010.45 1010.93 1011.41 1011.89 1012.33 1012.85 1013.17 1013.53 1013.93 1014.21 1014.57 1015.01 1015.13 1015.37 1015.61 1015.81 1016.09 1016.13 1016.21 1016.29 1016.57 1016.77 1017.05 1017.09 1017.13 1017.25 1017.41 1017.61 1017.81 1017.97 1018.25 1018.49 1018.65 1018.89 1018.97 1019.13 1019.29 1019.45 1019.57 1019.65 1019.81 1020.05 1020.25 1020.29
1003.25 1003.45 1003.69 1004.05 1004.45 1004.77 1005.13 1005.37 1005.77 1005.89 1006.29 1006.69 1007.05 1007.53 1007.81 1008.17 1008.57 1009.05 1009.57 1010.05 1010.65 1010.97 1011.33 1011.85 1012.29 1012.65 1013.05 1013.49 1013.89 1014.21 1014.45 1014.77 1015.01 1015.29 1015.65 1015.77 1015.89 1015.89 1015.93 1016.13 1016.37 1016.57 1016.69 1016.81 1016.97 1017.17 1017.25 1017.57 1017.69 1017.89 1018.17 1018.45 1018.61 1018.81 1018.93 1019.13 1019.25 1019.41 1019.53 1019.65 1019.89 1020.09 1020.29
1002.81 1003.01 1003.05 1003.13 1003.41 1003.77 1004.25 1004.61 1005.09 1005.37 1005.53 1005.73 1006.05 1006.49 1007.13 1007.65 1007.93 1008.41 1008.85 1009.33 1010.09 1010.57 1011.09 1011.33 1011.77 1012.29 1012.65 1013.13 1013.57 1013.85 1014.17 1014.37 1014.45 1014.73 1015.01 1015.09 1015.41 1015.53 1015.73 1015.97 1016.13 1016.13 1016.53 1016.69 1016.61 1016.77 1016.89 1017.21 1017.53 1017.73 1017.93 1018.21 1018.41 1018.49 1018.69 1018.93 1019.01 1019.21 1019.37 1019.53 1019.77 1019.81 1020.01
1002.13 1002.13 1002.41 1002.89 1003.25 1003.65 1003.97 1004.25 1004.57 1004.81 1004.89 1004.97 1005.37 1005.85 1006.29 1006.81 1007.33 1007.81 1008.37 1008.69 1009.13 1009.77 1010.01 1010.57 1011.01 1011.57 1012.01 1012.41 1012.81 1013.13 1013.53 1013.89 1014.09 1014.29 1014.53 1014.65 1014.89 1015.17 1015.49 1015.69 1015.81 1015.97 1016.05 1016.17 1016.37 1016.65 1016.89 1017.13 1017.29 1017.53 1017.77 1017.97 1018.17 1018.29 1018.53 1018.65 1018.85 1018.97 1019.21 1019.37 1019.69 1019.65 1019.81
1001.85 1002.01 1002.09 1002.25 1002.57 1002.85 1003.09 1003.29 1003.49 1003.77 1004.13 1004.57 1004.89 1005.41 1005.77 1006.25 1006.61 1007.17 1007.65 1008.25 1008.73 1009.17 1009.65 1010.13 1010.61 1011.05 1011.61 1011.81 1012.17 1012.61 1012.93 1013.33 1013.61 1013.85 1014.17 1014.37 1014.69 1014.93 1015.21 1015.29 1015.41 1015.65 1015.81 1016.01 1016.01 1016.29 1016.57 1016.85 1017.01 1017.21 1017.45 1017.57 1017.81 1017.93 1018.09 1018.37 1018.53 1018.69 1018.97 1019.21 1019.41 1019.45 1019.57
1001.13 1001.33 1001.49 1001.53 1001.77 1002.09 1002.37 1002.57 1002.69 1003.01 1003.37 1003.69 1004.09 1004.73 1005.21 1005.65 1006.13 1006.49 1007.01 1007.69 1008.13 1008.81 1009.21 1009.57 1009.85 1010.37 1010.97 1011.29 1011.73 1012.13 1012.61 1012.93 1013.21 1013.53 1013.69 1014.05 1014.21 1014.57 1014.73 1014.89 1015.05 1015.21 1015.29 1015.53 1015.85 1015.89 1016.33 1016.61 1016.77 1016.89 1017.09 1017.21 1017.41 1017.61 1017.85 1018.09 1018.29 1018.37 1018.65 1019.01 1019.25 1019.29 1019.41
1000.33 1000.85 1000.81 1000.89 1001.01 1001.09 1001.41 1001.77 1002.05 1002.41 1002.97 1003.41 1003.97 1004.45 1004.85 1004.93 1005.53 1006.13 1006.49 1006.77 1007.41 1007.97 1008.53 1008.93 1009.37 1009.77 1010.29 1010.69 1011.13 1011.65 1012.09 1012.41 1012.61 1012.97 1013.25 1013.69 1013.89 1014.25 1014.37 1014.57 1014.77 1014.81 1015.05 1015.41 1015.53 1015.61 1015.93 1016.21 1016.37 1016.53 1016.73 1017.01 1017.21 1017.37 1017.53 1017.77 1018.09 1018.13 1018.33 1018.77 1019.05 1019.17 1019.09
999.57 999.89 1000.21 1000.21 1000.25 1000.25 1000.49 1001.01 1001.49 1001.97 1002.65 1003.09 1003.29 1003.53 1003.97 1004.45 1004.89 1005.25 1005.73 1006.21 1006.65 1007.13 1007.65 1007.89 1008.45 1008.93 1009.61 1010.21 1010.73 1011.21 1011.53 1011.85 1012.21 1012.53 1012.97 1013.25 1013.41 1013.69 1013.85 1014.09 1014.29 1014.41 1014.85 1015.01 1015.13 1015.29 1015.53 1015.77 1015.97 1016.25 1016.49 1016.77 1016.93 1017.17 1017.37 1017.53 1017.77 1017.85 1018.05 1018.37 1018.65 1018.93 1018.89
999.37 999.77 999.73 999.49 999.37 999.53 1000.05 1000.65 1001.37 1001.93 1002.65 1003.09 1003.37 1003.77 1004.21 1004.29 1004.37 1004.77 1005.21 1005.57 1005.93 1006.53 1006.93 1007.41 1007.89 1008.45 1009.13 1009.73 1010.17 1010.57 1011.05 1011.49 1011.69 1012.09 1012.41 1012.77 1012.85 1013.17 1013.25 1013.41 1013.81 1014.01 1014.37 1014.57 1014.61 1015.01 1015.21 1015.33 1015.57 1015.89 1016.29 1016.61 1016.81 1016.97 1017.17 1017.33 1017.45 1017.57 1017.69 1017.97 1018.21 1018.49 1018.65
999.21 999.41 999.89 999.93 999.89 999.93 1000.13 1000.61 1001.33 1001.69 1001.93 1002.45 1002.77 1002.93 1003.29 1003.65 1004.05 1004.37 1004.65 1004.89 1005.33 1005.77 1006.17 1006.77 1007.17 1007.89 1008.57 1009.13 1009.73 1010.13 1010.65 1011.01 1011.25 1011.65 1011.93 1012.13 1012.25 1012.57 1012.73 1012.89 1013.21 1013.53 1013.93 1014.13 1014.37 1014.45 1014.81 1015.17 1015.25 1015.65 1016.01 1016.33 1016.53 1016.73 1016.89 1016.97 1017.09 1017.33 1017.37 1017.45 1017.61 1017.89 1018.09
1000.45 1000.49 1000.81 1000.73 1000.49 1000.45 1000.65 1000.69 1001.01 1001.53 1001.97 1002.33 1002.45 1002.57 1002.97 1003.25 1003.49 1003.73 1004.01 1004.29 1004.49 1005.25 1005.77 1006.29 1006.61 1007.25 1008.01 1008.53 1009.17 1009.69 1010.17 1010.49 1010.77 1011.09 1011.41 1011.61 1011.77 1012.01 1012.17 1012.37 1012.73 1013.09 1013.45 1013.65 1014.01 1014.13 1014.29 1014.77 1015.01 1015.21 1015.61 1015.85 1016.01 1016.17 1016.41 1016.53 1016.69 1016.89 1017.05 1017.05 1017.17 1017.45 1017.61
1000.05 1000.29 1000.41 1000.45 1000.57 1000.49 1000.65 1001.05 1001.45 1001.61 1001.77 1001.93 1002.01 1002.17 1002.45 1002.85 1003.17 1003.37 1003.73 1004.13 1004.25 1004.57 1005.13 1005.69 1006.29 1006.89 1007.57 1008.05 1008.45 1009.09 1009.53 1009.89 1010.21 1010.41 1010.77 1011.13 1011.29 1011.37 1011.65 1011.97 1012.17 1012.53 1013.01 1013.13 1013.41 1013.77 1013.97 1014.17 1014.61 1014.73 1015.05 1015.37 1015.53 1015.73 1015.97 1016.17 1016.29 1016.49 1016.65 1016.77 1016.85 1017.05 1017.33
1000.41 1000.09 1000.01 1000.13 1000.45 1000.73 1001.01 1000.89 1001.05 1001.41 1001.57 1001.69 1001.85 1001.85 1002.13 1002.45 1002.69 1003.05 1003.45 1003.89 1003.97 1004.25 1004.77 1005.25 1005.81 1006.49 1007.09 1007.61 1008.09 1008.53 1008.89 1009.17 1009.45 1009.85 1010.21 1010.49 1010.89 1011.09 1011.29 1011.49 1011.77 1012.09 1012.37 1012.69 1013.09 1013.25 1013.45 1013.69 1014.05 1014.33 1014.53 1014.81 1015.09 1015.21 1015.41 1015.73 1015.97 1016.13 1016.25 1016.41 1016.57 1016.73 1016.97
1000.45 999.93 999.93 1000.37 1000.53 1000.57 1000.73 1001.01 1001.17 1001.29 1001.41 1001.45 1001.41 1001.69 1001.89 1002.21 1002.49 1002.81 1003.21 1003.53 1003.81 1003.97 1004.33 1004.65 1005.41 1006.21 1006.81 1007.29 1007.73 1008.01 1008.25 1008.65 1009.01 1009.37 1009.85 1010.25 1010.65 1010.97 1011.13 1011.29 1011.53 1011.77 1012.09 1012.41 1012.65 1012.69 1012.81 1013.05 1013.33 1013.89 1014.25 1014.37 1014.61 1014.81 1014.93 1015.25 1015.49 1015.57 1015.77 1016.09 1016.29 1016.33 1016.57
1000.41 999.93 999.53 999.69 1000.21 1000.29 1000.41 1000.41 1000.53 1000.77 1000.93 1001.17 1001.25 1001.37 1001.57 1001.85 1002.17 1002.41 1002.81 1003.17 1003.33 1003.65 1003.85 1004.41 1005.21 1005.85 1006.37 1006.85 1007.13 1007.45 1007.85 1008.29 1008.65 1009.13 1009.53 1010.01 1010.41 1010.73 1010.89 1011.09 1011.29 1011.49 1011.89 1012.17 1012.33 1012.49 1012.61 1012.81 1013.01 1013.29 1013.77 1014.17 1014.37 1014.49 1014.61 1014.81 1014.81 1014.97 1015.25 1015.45 1015.65 1015.97 1016.09
1000.81 1000.73 1000.41 1000.13 999.61 999.81 999.93 1000.05 1000.09 1000.41 1000.65 1000.85 1000.89 1000.93 1001.05 1001.29 1001.45 1001.77 1002.21 1002.69 1003.09 1003.45 1003.45 1003.93 1004.85 1005.37 1005.77 1006.33 1006.57 1007.01 1007.49 1008.05 1008.49 1008.85 1009.41 1009.65 1010.01 1010.37 1010.65 1010.89 1011.05 1011.33 1011.73 1011.97 1012.17 1012.33 1012.53 1012.69 1012.97 1013.05 1013.17 1013.57 1013.89 1014.21 1014.25 1014.29 1014.25 1014.57 1014.97 1015.29 1015.45 1015.53 1015.77
1001.29 1001.09 1000.73 1000.49 1000.37 999.97 999.69 999.69 999.89 1000.09 1000.29 1000.21 1000.17 1000.33 1000.57 1000.93 1001.17 1001.57 1001.85 1002.13 1002.49 1002.73 1002.93 1003.61 1004.29 1004.89 1005.41 1005.81 1006.29 1006.73 1007.25 1007.69 1008.17 1008.65 1009.05 1009.41 1009.81 1010.05 1010.33 1010.57 1010.89 1011.25 1011.49 1011.77 1012.05 1012.21 1012.21 1012.57 1012.73 1012.85 1012.89 1013.05 1013.33 1013.57 1013.69 1013.73 1013.77 1014.25 1014.65 1014.97 1015.25 1015.37 1015.41
1001.45 1000.89 1000.53 1000.37 1000.25 1000.25 1000.05 999.57 999.09 999.29 999.25 999.21 999.45 999.73 999.73 999.93 1000.53 1001.01 1001.05 1001.49 1001.69 1002.13 1002.73 1003.21 1003.81 1004.61 1005.17 1005.49 1005.93 1006.41 1006.81 1007.29 1007.85 1008.33 1008.77 1009.09 1009.41 1009.77 1010.13 1010.41 1010.73 1011.05 1011.25 1011.53 1011.53 1011.81 1012.21 1012.37 1012.53 1012.73 1012.73 1012.81 1013.09 1013.21 1013.09 1013.21 1013.33 1013.93 1014.29 1014.61 1014.93 1015.21 1015.33
1001.57 1001.09 1000.61 1000.25 1000.01 999.93 999.77 999.45 999.01 998.29 998.37 998.45 998.45 998.41 998.53 999.05 999.65 1000.05 1000.37 1001.01 1001.57 1002.13 1002.45 1003.13 1003.69 1004.25 1004.77 1005.13 1005.57 1005.97 1006.41 1006.89 1007.45 1007.97 1008.37 1008.65 1009.09 1009.45 1009.85 1010.17 1010.45 1010.49 1010.61 1010.93 1011.25 1011.65 1011.93 1012.05 1012.29 1012.41 1012.57 1012.65 1012.81 1012.93 1012.73 1012.69 1012.89 1013.49 1013.89 1014.25 1014.65 1014.93 1015.25
1001.97 1001.53 1001.09 1000.57 1000.21 999.81 999.61 999.45 998.93 998.45 998.01 997.93 997.85 998.09 998.57 999.25 999.53 1000.09 1000.57 1000.85 1001.45 1001.77 1002.33 1002.85 1003.41 1004.01 1004.45 1004.89 1005.21 1005.57 1006.05 1006.53 1007.01 1007.57 1007.97 1008.33 1008.73 1009.13 1009.49 1009.77 1010.01 1010.29 1010.33 1010.49 1010.89 1011.29 1011.61 1011.77 1012.01 1012.09 1012.21 1012.33 1012.37 1012.53 1012.61 1012.33 1012.53 1013.05 1013.53 1013.97 1014.37 1014.73 1015.09
1002.21 1001.65 1001.25 1000.57 1000.33 999.93 999.77 999.45 998.93 998.13 997.69 997.09 997.41 997.77 998.01 998.45 998.69 999.45 1000.09 1000.33 1001.13 1001.65 1002.09 1002.65 1003.25 1003.73 1004.13 1004.61 1004.89 1005.21 1005.53 1006.01 1006.65 1007.17 1007.57 1008.01 1008.41 1008.81 1009.17 1009.41 1009.69 1010.01 1010.01 1010.13 1010.25 1010.49 1010.81 1011.17 1011.25 1011.61 1011.85 1011.81 1011.93 1012.13 1012.29 1011.89 1012.17 1012.73 1013.25 1013.69 1014.13 1014.65 1014.93
1002.37 1001.53 1000.73 1000.05 999.53 999.13 998.65 998.37 998.21 997.53 996.97 996.97 997.09 997.37 997.65 997.89 998.41 999.05 999.69 1000.41 1000.85 1001.37 1001.93 1002.41 1003.05 1003.37 1003.69 1004.05 1004.37 1004.77 1005.13 1005.57 1006.21 1006.73 1007.17 1007.53 1008.05 1008.45 1008.69 1009.05 1009.33 1009.53 1009.53 1009.97 1009.97 1010.21 1010.49 1010.69 1010.81 1010.85 1011.09 1011.29 1011.45 1011.73 1011.73 1011.61 1011.69 1012.33 1012.85 1013.37 1013.93 1014.53 1014.45
1001.97 1001.01 1000.33 999.65 999.01 998.49 997.97 997.61 997.25 996.85 996.69 996.73 996.89 996.69 996.89 997.45 998.21 998.89 999.57 1000.17 1000.65 1001.25 1001.77 1002.13 1002.61 1002.77 1003.21 1003.61 1003.89 1004.25 1004.65 1005.13 1005.61 1006.25 1006.69 1007.13 1007.57 1007.85 1008.09 1008.33 1008.57 1008.93 1008.97 1009.49 1009.69 1009.81 1009.81 1009.97 1010.21 1010.25 1010.37 1010.61 1010.85 1010.93 1011.33 1011.25 1011.21 1011.85 1012.41 1012.97 1013.57 1013.73 1013.85
1002.25 1001.13 1000.33 999.65 999.05 998.37 997.57 996.93 996.69 996.45 996.41 996.53 996.97 996.61 996.65 997.09 997.89 998.81 999.53 999.85 1000.21 1000.69 1001.37 1001.81 1002.05 1002.29 1002.69 1003.05 1003.33 1003.73 1004.17 1004.61 1005.13 1005.69 1006.17 1006.65 1006.93 1007.21 1007.69 1007.93 1008.13 1008.21 1008.45 1008.77 1009.01 1009.13 1009.13 1009.37 1009.69 1009.85 1009.89 1009.89 1010.09 1010.33 1010.73 1010.73 1010.77 1011.33 1011.89 1012.49 1012.97 1013.29 1013.21
1002.85 1001.61 1000.57 999.33 998.45 997.93 997.45 996.69 996.61 996.65 996.57 996.77 996.73 996.29 996.57 997.01 997.81 998.65 999.13 999.45 999.73 1000.45 1000.93 1001.13 1001.21 1001.41 1001.93 1002.53 1002.97 1003.33 1003.77 1004.13 1004.73 1005.17 1005.57 1006.09 1006.45 1006.73 1007.09 1007.33 1007.69 1007.93 1008.21 1008.41 1008.53 1008.81 1008.81 1008.97 1009.21 1009.53 1009.61 1009.45 1009.65 1009.81 1010.05 1010.33 1010.25 1010.69 1011.33 1011.89 1012.41 1012.61 1012.57
1002.73 1001.61 1000.81 999.73 998.93 998.25 997.37 996.77 996.69 996.77 996.53 996.41 996.37 996.29 996.45 996.89 997.77 998.61 998.89 999.17 999.61 1000.01 999.97 1000.17 1000.65 1001.25 1001.73 1002.17 1002.61 1003.05 1003.45 1003.73 1004.17 1004.69 1005.01 1005.37 1005.93 1006.25 1006.65 1006.85 1007.25 1007.49 1007.89 1008.21 1008.25 1008.45 1008.69 1008.77 1008.89 1009.09 1009.25 1009.17 1009.17 1009.29 1009.37 1009.49 1009.85 1010.13 1010.77 1011.29 1011.73 1012.13 1012.21
1003.09 1001.89 1000.65 999.53 998.69 998.13 997.37 996.73 996.77 996.69 996.33 996.21 996.33 996.29 996.45 996.97 997.93 998.37 998.65 999.01 999.33 999.17 999.21 999.85 1000.41 1000.89 1001.45 1002.01 1002.41 1002.73 1003.13 1003.45 1003.81 1004.25 1004.69 1005.01 1005.49 1006.09 1006.45 1006.45 1006.69 1007.05 1007.45 1007.69 1008.01 1008.41 1008.69 1008.81 1008.85 1008.97 1009.01 1008.93 1008.89 1008.93 1009.01 1008.93 1009.33 1009.45 1010.25 1010.65 1011.17 1011.53 1011.69
1003.65 1002.73 1001.81 1000.73 999.29 998.13 997.49 997.17 997.05 996.85 996.41 996.21 996.25 996.25 996.49 997.01 997.85 998.17 998.41 998.77 998.73 998.69 999.05 999.57 1000.09 1000.69 1001.21 1001.77 1002.21 1002.53 1002.81 1003.13 1003.53 1004.01 1004.21 1004.69 1005.05 1005.61 1006.17 1006.29 1006.57 1006.81 1007.09 1007.61 1007.93 1008.33 1008.69 1008.85 1008.93 1008.97 1009.01 1008.97 1008.73 1008.61 1008.65 1008.61 1008.81 1009.13 1009.73 1010.25 1010.61 1010.97 1011.33
1003.45 1002.77 1002.05 1001.01 999.85 998.89 997.81 997.85 997.45 996.85 996.33 996.33 996.33 996.41 996.57 997.05 997.85 998.05 998.37 998.61 998.37 998.57 998.93 999.45 999.97 1000.49 1001.13 1001.65 1001.97 1002.33 1002.61 1002.89 1003.25 1003.61 1003.85 1004.33 1004.81 1005.33 1005.85 1006.17 1006.37 1006.65 1006.97 1007.33 1007.73 1008.13 1008.53 1008.53 1008.65 1008.81 1008.93 1009.01 1008.89 1008.61 1008.41 1008.37 1008.37 1008.65 1009.01 1009.69 1010.29 1010.65 1010.97
1004.05 1003.41 1002.61 1001.85 1000.69 999.69 998.53 998.17 998.25 997.65 997.09 996.57 996.53 996.61 996.81 997.01 997.69 998.17 998.69 998.45 998.25 998.65 999.01 999.49 999.97 1000.53 1001.09 1001.49 1001.85 1002.17 1002.37 1002.65 1003.01 1003.37 1003.65 1003.97 1004.41 1005.13 1005.53 1005.93 1006.13 1006.69 1006.73 1007.09 1007.41 1007.65 1007.97 1008.17 1008.21 1008.65 1008.81 1008.85 1008.77 1008.45 1008.25 1007.93 1007.89 1007.77 1008.29 1008.97 1009.73 1010.33 1010.73
1003.85 1003.17 1002.57 1001.85 1001.13 1000.25 999.21 998.41 998.33 998.17 998.13 997.69 997.13 997.17 997.13 997.21 997.49 998.45 998.57 998.21 998.41 998.61 998.97 999.49 1000.09 1000.65 1001.05 1001.33 1001.61 1001.93 1002.09 1002.61 1002.89 1003.17 1003.41 1003.69 1003.97 1004.53 1004.85 1005.37 1005.77 1006.21 1006.45 1006.69 1006.97 1007.17 1007.49 1007.73 1007.73 1007.97 1008.25 1008.45 1008.29 1008.21 1007.81 1007.65 1007.57 1007.49 1007.53 1008.41 1009.05 1009.85 1010.45
1004.29 1003.69 1003.21 1002.61 1001.85 1001.01 1000.25 999.61 999.01 998.77 998.49 998.41 997.77 997.45 997.37 997.45 997.57 997.85 998.01 998.33 998.45 998.65 999.01 999.57 1000.09 1000.65 1000.97 1001.29 1001.45 1001.69 1001.93 1002.41 1002.65 1002.93 1003.21 1003.45 1003.65 1003.97 1004.33 1004.61 1005.01 1005.49 1005.93 1006.13 1006.41 1006.69 1006.97 1007.13 1007.29 1007.49 1007.73 1008.01 1007.97 1007.77 1007.61 1007.45 1007.29 1007.41 1007.41 1007.89 1008.65 1009.29 1010.01
1004.61 1003.93 1003.17 1002.65 1002.09 1001.57 1001.09 1000.77 1000.17 999.45 999.05 998.81 998.25 997.77 997.65 997.69 997.85 997.89 998.05 998.25 998.37 998.61 999.13 999.69 1000.09 1000.53 1000.89 1001.09 1001.29 1001.57 1001.81 1002.21 1002.41 1002.73 1002.89 1003.13 1003.25 1003.61 1003.93 1004.09 1004.29 1004.77 1005.25 1005.53 1005.73 1006.13 1006.41 1006.61 1006.77 1006.97 1007.09 1007.29 1007.37 1007.37 1007.49 1007.45 1007.29 1007.25 1007.37 1007.49 1007.89 1008.33 1008.73
1004.73 1004.37 1003.73 1003.01 1002.45 1002.01 1001.73 1001.33 1000.77 1000.13 999.69 999.37 998.69 998.45 998.33 998.29 998.17 998.17 998.37 998.41 998.45 998.69 999.37 999.81 1000.13 1000.45 1000.77 1000.97 1001.17 1001.53 1001.65 1001.93 1002.25 1002.45 1002.53 1002.77 1003.09 1003.01 1003.49 1003.89 1003.77 1004.05 1004.37 1004.33 1004.33 1004.77 1005.29 1005.49 1005.69 1005.97 1006.09 1006.21 1006.49 1006.89 1007.25 1007.21 1007.17 1006.73 1006.37 1006.69 1006.89 1007.33 1007.97
1004.77 1004.37 1003.85 1003.25 1002.73 1002.37 1001.89 1001.49 1001.21 1000.77 1000.29 999.81 999.21 998.93 998.89 998.93 998.85 998.69 998.49 998.57 998.69 998.97 999.57 999.93 1000.21 1000.57 1000.81 1000.89 1001.13 1001.33 1001.57 1001.81 1001.93 1002.13 1002.29 1002.45 1002.89 1003.37 1004.61 1005.29 1005.25 1004.93 1004.61 1004.61 1004.81 1004.93 1005.05 1005.13 1005.37 1005.53 1005.45 1005.53 1005.49 1005.61 1006.49 1006.93 1006.97 1006.73 1006.57 1006.85 1007.13 1007.45 1007.61
1004.97 1004.57 1004.21 1003.69 1003.25 1002.85 1002.45 1002.05 1001.61 1001.21 1000.85 1000.29 999.77 999.57 999.41 999.37 999.17 999.05 998.93 998.81 998.85 999.17 999.53 999.77 1000.25 1000.53 1000.65 1000.81 1001.01 1001.13 1001.45 1001.69 1001.85 1001.93 1002.17 1002.17 1002.41 1002.93 1003.97 1004.77 1005.29 1005.65 1005.77 1005.73 1005.69 1005.53 1005.53 1005.81 1006.09 1006.17 1006.13 1006.01 1006.01 1005.93 1006.09 1006.73 1007.01 1007.09 1007.21 1007.29 1007.49 1007.69 1008.05
1004.89 1004.69 1004.53 1004.17 1003.89 1003.53 1002.93 1002.41 1002.21 1001.93 1001.57 1000.85 1000.33 1000.09 999.89 999.85 999.65 999.49 999.21 999.21 999.09 998.97 999.29 999.61 1000.05 1000.49 1000.53 1000.61 1000.69 1001.05 1001.33 1001.45 1001.85 1001.93 1002.13 1002.33 1002.41 1002.89 1003.57 1004.01 1004.77 1005.53 1006.09 1006.29 1006.13 1006.17 1006.29 1006.29 1006.33 1006.45 1006.45 1006.45 1006.45 1006.49 1006.49 1006.93 1007.21 1007.45 1007.61 1007.77 1007.89 1008.09 1008.29
Wind_Speed
16 17 17 16 17 19 20 20 21 21 21 20 20 22 21 20 19 18 18 19 20 20 20 19 18 17 18 17 18 17 16 13 12 12 12 12 11 11 11 10 11 10 10 9 9 9 8 9 9 9 8 8 8 8 8 7 7 6 6 6 5 5 5
14 15 16 17 18 19 20 21 22 20 20 21 20 22 21 21 19 19 18 20 21 21 21 20 19 18 18 17 16 17 17 16 15 12 12 11 10 10 11 11 10 10 10 9 8 8 8 9 10 9 9 9 9 8 8 8 8 8 7 6 6 5 5
14 15 16 17 18 18 20 20 21 21 22 21 21 21 22 22 21 21 19 20 21 20 19 20 19 18 18 17 16 17 17 16 16 16 16 13 14 14 12 11 10 10 10 9 8 8 8 9 9 9 9 9 9 9 9 9 8 8 8 7 7 6 6
14 15 16 18 19 19 20 21 23 21 21 23 24 24 23 23 21 20 19 20 21 20 21 20 20 19 18 18 17 16 18 17 17 16 16 14 14 13 11 11 10 10 9 10 10 9 8 9 10 9 9 8 8 9 9 9 9 9 8 8 7 7 6
17 17 16 16 18 17 18 20 21 22 23 24 23 23 23 23 22 20 20 20 21 23 23 22 18 18 16 18 14 14 17 18 17 16 14 13 13 12 12 13 11 12 11 10 10 9 9 9 9 9 9 9 9 9 9 9 9 9 8 9 7 7 7
17 17 16 16 17 18 19 21 23 25 24 24 25 24 23 24 22 24 22 21 21 20 19 20 20 19 18 18 16 16 16 17 16 16 15 14 13 13 13 13 12 12 12 11 10 10 11 10 10 10 10 10 10 10 10 10 10 9 9 9 8 8 7
14 16 16 16 17 18 20 21 23 23 23 22 22 21 20 22 23 22 21 21 22 22 23 23 21 20 18 17 17 17 18 18 17 18 15 15 15 14 13 13 12 12 11 10 11 10 11 11 11 10 10 10 10 10 9 9 9 9 8 9 8 8 8
14 15 16 17 18 19 19 20 21 21 20 18 19 21 23 22 21 22 23 22 22 21 21 22 21 19 18 17 17 19 18 18 17 17 15 16 15 14 13 13 12 12 11 12 11 11 11 12 11 11 11 11 10 10 10 9 9 10 9 9 9 9 8
16 15 16 17 18 18 18 19 19 19 21 22 23 23 24 22 22 23 23 22 21 22 23 22 21 20 18 17 18 19 18 17 16 16 18 18 15 16 15 14 13 12 12 12 11 11 11 11 11 11 11 11 10 10 10 10 10 10 9 9 10 10 10
14 15 16 17 16 16 15 15 16 16 19 20 19 19 20 20 21 21 21 21 21 23 24 22 20 19 19 18 19 20 18 18 17 19 18 18 15 17 16 14 13 13 13 13 12 12 11 12 12 11 11 11 11 11 10 11 11 10 10 11 11 11 10
6 10 10 11 11 12 13 15 17 17 19 19 20 21 21 21 21 21 22 21 22 21 22 21 19 19 20 20 20 20 19 19 18 18 19 18 16 18 17 16 14 13 14 13 13 13 12 11 12 12 12 11 12 12 12 12 12 11 11 11 10 11 11
5 3 4 6 8 10 14 14 15 16 17 17 19 20 20 20 21 21 21 22 21 20 20 21 19 20 20 19 20 19 20 19 18 19 19 19 17 18 17 16 15 14 14 14 14 14 13 13 12 12 13 12 12 12 12 11 11 12 12 12 11 10 10
5 7 9 11 12 12 11 11 15 17 18 19 20 20 19 20 20 20 20 21 21 20 20 20 19 19 19 20 20 19 20 19 19 18 18 17 16 15 16 16 16 16 15 14 15 15 14 14 14 12 13 13 13 13 12 12 12 11 12 11 11 11 11
4 6 7 8 10 12 14 16 17 17 19 20 19 19 18 19 19 19 19 20 20 20 20 18 19 20 19 19 19 18 20 19 19 17 17 16 15 15 15 16 15 15 14 14 15 15 15 15 14 13 13 13 13 13 12 12 12 12 12 11 11 11 11
4 4 6 10 12 14 15 16 15 18 19 19 21 21 20 19 19 18 17 18 19 19 20 19 19 19 19 18 18 18 18 17 16 16 16 16 15 15 15 15 15 15 14 13 14 13 15 15 14 14 13 13 13 13 12 12 12 11 11 12 12 11 12
6 6 4 5 11 14 16 17 17 18 19 19 21 21 21 19 19 20 20 20 21 20 19 18 19 19 19 19 19 17 17 16 15 15 16 16 16 16 16 15 15 15 15 14 14 13 13 13 13 14 14 13 13 13 12 11 10 11 15 13 11 12 10
9 8 6 6 4 10 13 15 16 17 18 19 21 22 20 19 19 20 21 19 20 19 19 20 19 20 20 19 18 17 16 16 16 15 16 16 15 15 15 15 14 14 14 14 14 13 12 13 14 14 13 14 13 13 12 11 10 14 15 15 13 11 10
12 11 11 8 6 7 8 12 15 17 19 21 23 23 21 18 19 19 20 20 21 21 21 20 20 20 19 18 17 17 17 16 16 16 16 16 16 16 16 15 14 14 14 14 14 13 13 14 14 13 13 12 13 13 13 12 13 15 16 17 16 13 11
14 14 14 12 11 9 10 12 13 16 19 20 21 21 23 22 21 20 21 21 21 19 20 21 20 18 18 18 18 17 17 16 16 17 16 16 16 15 14 15 15 15 15 16 14 13 13 13 13 14 13 13 13 13 13 13 14 16 18 18 18 18 15
16 16 16 15 14 13 12 11 12 14 19 19 21 24 23 22 21 20 18 18 18 20 18 18 18 18 18 18 17 17 17 17 17 17 16 15 15 15 15 16 16 16 14 13 13 13 13 14 14 13 13 13 13 12 12 13 13 18 18 18 18 18 16
16 16 17 16 15 15 13 13 13 15 16 19 21 20 19 18 18 16 17 18 19 19 18 18 17 17 17 17 17 17 17 17 17 17 16 16 15 15 16 16 15 15 14 13 14 14 13 14 14 13 13 14 14 13 13 13 13 18 19 18 19 18 15
17 18 18 16 17 17 16 15 15 16 17 16 17 18 19 20 20 19 19 18 19 18 18 17 17 17 17 17 17 18 17 17 17 16 16 16 16 16 16 15 15 15 14 12 12 12 12 12 13 14 14 14 14 14 14 13 15 17 18 19 18 18 11
18 19 19 18 18 18 16 15 16 16 14 14 16 18 19 18 19 19 19 19 18 18 18 18 18 17 17 18 17 17 17 17 17 17 16 16 17 17 16 15 15 14 13 13 13 13 13 13 14 13 14 15 15 15 14 13 13 17 18 18 18 14 11
18 18 18 18 18 17 16 15 14 14 14 16 18 19 18 18 18 18 18 18 18 19 18 19 19 17 17 17 17 17 17 17 17 17 16 16 17 17 16 15 13 14 13 14 14 14 14 13 13 13 14 15 16 15 14 14 13 18 18 19 20 17 13
18 17 17 17 17 17 15 12 10 12 14 15 18 18 18 20 21 19 18 19 20 19 19 19 18 18 18 17 17 16 16 16 16 16 16 17 16 15 15 15 14 13 13 13 13 13 12 12 12 12 13 14 15 14 16 14 12 18 19 20 21 18 13
17 15 16 15 15 14 14 11 9 11 14 17 18 18 19 20 19 19 18 19 19 19 19 19 19 18 16 15 16 16 15 15 16 16 16 17 15 14 14 13 12 13 13 13 12 12 12 12 12 13 12 12 14 13 16 15 13 15 20 21 21 22 14
15 14 14 15 13 13 9 6 8 11 13 13 15 17 19 18 18 18 17 18 18 20 19 18 16 15 15 15 16 16 16 15 16 17 16 15 14 13 13 13 13 13 13 13 12 12 12 13 12 12 12 12 12 13 14 13 15 12 22 21 22 23 19
15 13 13 13 12 9 7 4 8 11 13 13 16 17 17 17 17 17 17 18 19 20 16 15 15 15 15 15 16 16 16 16 14 15 14 13 13 13 13 13 13 12 13 12 11 12 12 11 11 11 11 11 12 12 12 12 15 12 19 22 22 23 25
14 14 14 15 13 8 7 3 6 10 12 13 16 15 15 17 17 16 17 18 18 15 15 15 15 16 15 15 16 16 16 15 16 14 12 13 14 14 13 12 13 12 12 11 11 12 13 12 12 11 12 12 12 12 12 13 11 16 12 20 22 23 23
16 15 15 15 14 12 6 4 4 6 10 11 13 13 14 15 15 15 16 17 14 14 14 14 15 15 15 14 15 15 15 15 15 14 13 14 13 13 13 13 12 12 11 12 12 12 12 12 12 12 12 13 12 12 12 10 11 13 16 15 22 20 22
15 14 14 15 15 16 11 3 3 1 2 7 12 10 11 12 13 14 15 13 13 14 14 15 15 14 14 14 15 14 14 13 13 14 13 13 14 13 13 13 13 12 12 12 12 12 12 11 11 11 12 12 12 12 11 12 13 12 14 20 19 21 20
16 17 17 16 17 17 15 6 1 2 3 2 4 6 8 9 11 12 12 11 12 13 13 14 14 14 14 14 14 14 14 14 14 14 14 14 13 13 12 13 13 12 12 12 13 12 12 12 12 12 12 12 12 12 12 12 11 12 10 14 16 16 19
17 16 15 16 15 15 14 13 7 3 2 4 3 5 5 7 7 8 10 10 11 12 12 13 13 13 12 13 13 13 14 14 13 13 13 14 12 12 12 12 12 12 12 13 12 12 12 12 12 12 11 12 12 11 11 11 11 10 10 9 9 9 10
15 17 16 15 15 15 14 15 13 9 6 4 3 3 4 5 6 7 8 9 11 11 11 11 12 12 12 13 12 11 12 12 13 13 12 13 13 12 12 12 12 12 13 13 13 13 13 13 12 12 12 12 11 12 11 11 11 11 11 10 9 9 10
13 13 13 16 17 17 15 15 14 12 10 9 6 5 5 5 5 4 7 7 8 9 10 10 11 11 12 12 11 11 11 11 11 11 10 11 11 10 3 5 10 12 10 10 11 11 12 13 10 11 11 11 11 11 10 10 11 11 8 6 6 9 9
13 14 15 15 13 15 16 16 15 15 13 10 9 9 8 6 4 3 4 5 6 7 9 9 10 11 11 11 11 10 10 10 10 11 10 10 11 8 6 9 14 10 1 4 8 10 12 7 3 2 5 10 10 9 9 8 1 8 3 7 7 6 4
13 14 14 16 16 18 18 16 16 14 15 13 11 10 9 9 8 7 5 1 5 8 10 9 9 9 9 10 10 10 9 9 9 10 10 9 10 9 8 6 8 14 13 10 7 9 10 10 9 10 10 5 2 1 8 12 11 12 7 3 5 5 7
13 13 12 13 15 15 17 17 15 14 14 12 10 10 10 10 9 7 6 5 3 5 9 9 8 8 9 8 8 9 9 8 8 8 9 8 7 8 9 8 7 5 13 14 11 12 12 11 11 10 9 9 5 2 2 10 12 11 10 9 8 9 10
Wind_Direction
195 194 194 192 193 195 191 189 188 188 188 189 189 190 190 189 189 186 186 183 183 183 184 184 186 187 192 199 204 206 207 201 203 202 201 203 205 202 200 200 200 203 206 207 204 206 202 205 211 210 209 209 214 214 220 221 224 228 229 229 230 236 230
196 194 194 194 196 197 195 190 188 188 188 188 188 188 190 189 188 188 187 184 183 182 183 185 186 189 193 197 199 203 206 204 206 207 205 203 203 204 202 200 202 201 206 210 205 201 199 200 204 206 209 208 213 216 217 219 221 224 227 223 228 226 226
198 195 194 195 197 197 194 191 190 191 188 188 188 188 190 189 189 189 186 184 184 183 182 185 187 188 190 192 193 199 203 204 203 206 208 205 200 201 199 200 201 202 203 203 206 202 199 200 198 202 208 213 218 215 218 220 219 222 224 225 226 223 223
202 198 198 198 199 196 192 192 192 192 191 190 189 188 188 187 187 187 188 185 183 183 183 184 184 186 188 189 192 196 203 204 206 206 207 206 201 200 197 198 202 204 200 202 203 206 204 200 199 200 201 210 215 218 217 221 221 220 222 221 227 226 226
205 199 201 200 201 196 193 194 192 192 194 193 190 188 188 185 185 186 188 188 187 186 185 183 184 186 187 189 192 196 200 202 204 205 204 202 201 196 199 200 199 203 202 202 201 200 203 199 200 199 197 204 210 212 216 216 221 218 219 218 225 226 227
205 201 200 200 199 197 196 195 194 194 194 191 190 188 187 186 187 188 188 187 189 188 185 184 186 185 188 190 191 193 195 200 201 201 202 199 198 196 199 203 202 202 202 202 199 200 197 202 203 200 202 201 209 214 214 214 217 217 216 218 222 225 229
206 200 199 199 197 197 198 198 197 196 193 193 190 187 187 188 190 189 187 188 188 187 187 187 187 186 188 188 193 192 194 197 197 199 198 198 196 197 199 200 203 202 204 197 203 198 198 201 204 205 206 210 208 212 213 215 216 215 217 218 218 218 224
208 199 199 197 197 199 199 198 197 194 191 190 188 188 191 190 188 188 190 189 188 188 190 189 187 187 185 188 189 191 193 193 191 193 194 196 194 197 197 199 199 200 199 200 199 200 200 200 203 206 207 211 209 209 211 208 210 216 216 220 218 216 214
207 199 198 200 201 202 199 196 194 189 187 189 190 190 190 189 189 190 190 188 188 189 191 190 188 185 183 185 187 190 191 192 191 191 193 195 194 197 197 197 198 196 197 201 198 198 204 201 205 203 206 210 209 207 209 207 208 213 216 217 216 216 217
208 201 201 203 204 202 196 191 188 186 185 189 191 190 190 192 192 191 189 190 190 192 189 190 188 185 183 185 187 188 188 189 191 192 194 197 197 198 200 197 196 194 198 199 202 197 200 206 205 203 204 206 208 206 207 206 208 209 211 212 213 215 216
238 206 209 216 212 204 193 187 184 187 186 186 188 190 189 191 191 190 191 191 191 191 189 188 187 185 184 186 187 187 189 191 192 194 195 197 198 199 200 200 196 194 198 199 203 201 197 201 204 204 202 205 204 205 206 206 206 208 211 210 210 213 216
193 197 213 225 217 199 196 190 187 185 184 185 189 190 189 190 191 192 191 191 190 187 187 187 187 186 184 186 187 187 189 191 193 195 196 197 198 199 200 199 198 194 196 200 201 202 202 197 201 202 202 204 205 206 207 207 207 206 210 212 210 210 215
205 201 202 201 195 197 194 189 188 188 187 187 191 191 190 191 192 192 190 191 190 187 186 185 185 185 185 187 188 187 189 190 193 194 196 195 199 198 197 199 198 197 197 198 201 200 202 199 200 200 201 202 206 207 205 206 206 206 206 211 214 213 213
243 223 209 198 197 194 193 193 190 189 188 189 190 192 192 193 193 192 190 189 188 186 184 184 185 183 185 187 188 187 189 191 191 193 193 193 195 198 197 197 197 198 197 197 200 202 202 203 199 199 200 202 204 206 205 204 205 205 206 207 211 213 214
297 263 204 196 191 192 195 192 191 191 190 191 192 192 191 191 192 192 190 190 189 188 186 183 182 183 184 185 188 187 186 185 188 189 188 191 191 195 196 195 196 195 196 197 201 203 204 204 203 199 202 203 204 205 205 205 205 204 203 204 206 212 215
306 305 301 211 196 198 195 199 195 193 193 192 194 194 193 190 190 191 190 188 187 187 185 180 182 182 183 186 187 184 182 183 183 185 187 189 190 192 193 194 195 194 196 197 201 202 204 205 205 205 202 203 203 205 205 207 207 202 199 200 204 206 214
327 329 330 321 282 215 209 205 203 198 195 194 195 196 195 192 190 189 189 187 187 187 183 180 181 182 184 186 184 180 178 179 182 182 186 188 188 189 191 194 193 194 194 197 199 202 200 204 205 208 206 205 205 204 206 207 209 191 189 195 204 209 207
327 324 321 321 312 296 261 226 210 201 198 197 196 195 195 193 190 187 188 186 187 187 183 183 183 184 184 182 178 177 177 178 179 183 185 185 188 187 190 191 192 193 192 196 197 199 200 203 205 207 210 209 209 208 209 211 202 181 186 190 194 203 211
321 320 319 316 310 293 271 261 240 214 205 200 198 195 196 192 189 188 187 185 186 183 184 185 183 182 180 179 178 178 176 177 181 183 183 185 185 185 187 189 192 193 194 197 198 197 201 202 202 205 209 213 213 215 213 217 186 181 186 190 193 198 210
320 317 313 310 309 302 295 278 259 240 217 206 199 198 195 192 190 188 183 179 178 183 185 183 183 182 180 178 179 178 177 179 182 183 185 183 183 185 187 190 194 196 196 197 196 199 202 203 204 205 207 211 215 217 222 224 179 183 186 190 192 195 200
315 313 310 307 303 301 298 290 267 250 234 216 207 198 191 190 189 178 177 177 180 183 181 182 183 180 179 179 179 178 179 181 183 183 183 182 184 187 191 194 196 198 199 198 199 199 201 202 204 206 206 209 213 217 221 230 184 182 185 188 189 192 197
311 309 305 303 302 296 288 277 268 252 238 221 208 197 193 190 186 180 178 177 177 180 181 179 180 179 179 181 181 182 182 181 183 183 183 185 187 191 195 195 196 197 198 202 202 201 201 204 207 207 207 209 213 217 222 226 190 179 184 186 188 183 197
304 300 301 299 296 292 286 274 259 253 237 219 205 197 195 188 184 179 174 175 178 178 180 179 180 180 180 183 184 184 183 183 183 182 185 187 190 195 196 195 195 197 195 201 204 201 202 203 206 208 209 210 212 216 221 226 195 176 180 184 181 177 204
304 297 298 301 300 294 283 264 251 240 231 210 202 195 187 183 181 175 171 173 174 178 179 181 183 182 180 183 185 183 182 183 184 184 186 189 194 196 197 196 196 196 195 201 203 207 205 204 207 208 210 212 213 211 217 225 197 175 179 180 176 184 200
304 301 303 302 301 301 294 274 243 234 215 203 194 189 181 179 175 170 170 172 177 180 181 186 185 183 183 184 182 182 183 183 184 186 187 192 195 194 194 195 196 197 197 203 206 210 208 207 207 208 210 214 216 206 214 224 204 174 179 179 178 188 203
310 308 307 306 306 306 295 274 233 220 202 196 193 185 180 175 171 171 172 175 178 182 187 188 187 186 182 179 180 182 182 183 184 187 190 193 192 194 196 195 197 198 198 202 204 206 211 208 211 211 213 214 215 214 214 221 222 179 181 180 182 189 199
318 317 316 317 319 311 282 248 222 213 206 194 187 181 177 176 172 171 171 174 181 188 190 186 180 178 178 179 181 182 183 184 187 190 192 191 191 192 195 196 200 200 199 202 204 207 211 213 213 215 216 218 217 221 218 218 224 183 181 183 185 191 199
329 335 332 329 320 316 306 251 229 219 207 188 181 181 177 172 170 169 170 176 186 189 183 174 175 176 176 177 182 183 185 187 187 189 190 189 188 192 196 198 199 200 200 203 204 208 209 211 216 218 220 219 220 224 224 214 208 218 181 186 188 190 200
336 340 342 342 342 338 338 304 232 221 205 184 184 181 175 175 171 170 171 184 187 177 172 173 174 173 175 177 180 185 186 186 184 185 188 189 190 191 193 194 198 199 200 201 204 205 211 212 218 221 224 227 228 230 230 232 208 210 191 189 190 194 198
347 347 347 346 353 352 348 357 298 232 196 185 186 183 180 177 172 172 178 182 170 170 170 170 171 171 174 175 181 183 185 185 184 185 187 187 188 191 190 193 194 195 196 201 208 211 213 219 220 224 227 228 229 227 230 221 232 202 196 182 195 194 197
341 341 347 347 353 352 359 8 289 280 199 194 179 181 181 181 176 175 177 170 167 170 169 169 169 172 175 177 179 181 182 183 184 186 187 185 186 188 192 192 191 194 199 203 206 212 217 216 217 217 222 226 226 228 225 227 226 231 187 181 186 195 198
347 351 354 356 358 351 4 20 268 208 162 134 169 182 190 187 181 171 169 164 166 168 166 167 169 173 176 176 178 180 182 182 185 187 188 187 188 190 192 191 192 196 196 202 208 213 215 215 215 216 218 220 225 226 227 223 229 232 209 177 180 191 198
347 348 351 356 351 354 1 8 28 53 124 137 150 177 167 177 176 169 163 163 166 167 165 168 169 171 175 178 180 182 186 187 189 187 187 191 190 191 194 194 195 196 197 197 201 205 210 215 214 216 214 221 224 225 226 224 226 225 224 171 176 189 189
344 345 349 357 355 358 9 6 11 41 57 90 101 118 149 148 155 153 163 165 171 175 173 175 174 177 180 182 183 185 187 191 187 187 189 190 195 194 195 198 201 200 197 198 200 202 205 208 212 212 215 218 217 223 223 226 226 226 224 214 191 193 195
345 341 345 359 4 7 16 19 17 26 46 49 69 89 96 98 104 140 171 171 174 175 178 180 177 181 181 182 185 185 185 189 187 194 195 189 194 199 180 213 205 202 197 204 207 208 206 210 207 208 218 223 222 220 224 226 227 223 222 227 206 201 203
348 350 352 356 2 6 6 11 10 16 31 37 43 63 75 84 99 119 162 168 178 184 185 179 177 181 183 184 185 184 181 188 187 193 198 193 191 162 97 60 60 37 330 195 26 43 46 45 214 235 241 229 221 221 230 239 268 34 162 141 140 168 193
358 358 356 355 1 6 11 7 4 2 19 30 38 56 64 68 67 68 75 75 184 194 198 183 179 186 189 186 190 182 177 186 189 187 195 202 198 189 145 133 64 49 49 47 38 49 59 67 65 61 52 46 238 336 49 86 78 62 57 105 154 155 104
3 8 1 1 7 4 7 11 6 4 6 10 25 40 49 56 59 56 65 52 11 195 185 186 180 185 189 185 187 167 179 185 188 191 187 195 205 194 181 174 160 113 47 42 47 54 55 51 46 48 68 65 69 67 168 80 79 95 93 104 119 129 130